Temp
-13 -12 -12 -12 -12 -12 -12 -12 -12 -13 -13 -13 -13 -13 -14 -13 -13 -13 -14 -14 -14 -13 -13 -13 -13 -13 -12 -12 -13 -13 -12 -12 -12 -12 -12 -12 -12 -12 -12 -12 -11 -11 -12 -13 -13 -12 -12
-13 -13 -13 -13 -13 -13 -13 -13 -13 -13 -14 -14 -14 -14 -14 -14 -14 -14 -14 -14 -14 -14 -14 -13 -13 -13 -13 -12 -14 -13 -13 -13 -13 -12 -12 -12 -12 -12 -12 -12 -11 -11 -12 -13 -12 -12 -12
-14 -14 -14 -14 -14 -14 -14 -14 -15 -15 -15 -15 -15 -15 -15 -14 -14 -14 -14 -15 -15 -14 -14 -14 -13 -13 -13 -13 -14 -14 -13 -13 -13 -13 -12 -12 -12 -12 -11 -12 -11 -11 -11 -12 -12 -12 -12
-15 -15 -15 -15 -15 -15 -15 -15 -15 -16 -15 -16 -16 -16 -15 -15 -15 -14 -14 -15 -15 -14 -14 -14 -14 -13 -12 -15 -15 -14 -14 -13 -13 -13 -13 -12 -12 -12 -12 -12 -12 -11 -11 -12 -13 -11 -11
-16 -16 -16 -16 -16 -16 -16 -16 -16 -16 -17 -17 -17 -17 -17 -17 -16 -15 -15 -15 -15 -14 -14 -14 -13 -13 -13 -15 -15 -15 -14 -14 -14 -14 -13 -13 -13 -12 -12 -12 -12 -12 -12 -12 -12 -12 -12
-17 -17 -17 -17 -17 -17 -17 -17 -17 -18 -18 -17 -18 -17 -17 -18 -18 -17 -16 -16 -15 -14 -14 -14 -14 -14 -14 -15 -15 -15 -15 -14 -14 -14 -13 -13 -13 -12 -12 -12 -12 -13 -13 -12 -12 -12 -12
-17 -17 -18 -18 -18 -18 -18 -18 -18 -18 -18 -18 -18 -18 -17 -17 -17 -18 -18 -18 -16 -14 -15 -15 -14 -14 -15 -15 -15 -15 -14 -14 -14 -14 -13 -13 -13 -12 -13 -13 -13 -13 -12 -12 -12 -13 -13
-19 -19 -19 -19 -19 -19 -19 -19 -18 -18 -18 -18 -18 -18 -17 -17 -17 -17 -18 -18 -18 -16 -16 -15 -15 -14 -15 -15 -15 -14 -15 -14 -14 -14 -14 -13 -12 -13 -13 -13 -13 -13 -13 -12 -13 -13 -13
-19 -19 -19 -19 -19 -19 -19 -19 -19 -18 -18 -18 -18 -18 -18 -17 -18 -17 -17 -17 -17 -17 -15 -17 -15 -14 -15 -14 -14 -14 -15 -14 -14 -14 -14 -14 -13 -14 -13 -13 -13 -13 -13 -12 -13 -13 -13
-20 -19 -20 -20 -20 -19 -19 -19 -19 -19 -19 -18 -18 -18 -18 -17 -17 -17 -17 -17 -17 -17 -16 -17 -17 -16 -15 -13 -13 -14 -14 -14 -14 -14 -14 -14 -14 -14 -13 -13 -13 -13 -13 -13 -13 -13 -12
-20 -20 -20 -20 -19 -19 -19 -19 -19 -19 -19 -18 -18 -18 -18 -17 -17 -17 -17 -17 -17 -17 -17 -18 -17 -17 -16 -15 -14 -15 -14 -14 -13 -13 -14 -14 -14 -14 -13 -13 -13 -13 -14 -13 -13 -13 -12
-20 -20 -20 -20 -20 -19 -19 -19 -19 -19 -19 -19 -18 -18 -18 -18 -18 -17 -17 -17 -17 -17 -17 -17 -18 -18 -17 -17 -16 -15 -15 -14 -15 -14 -14 -13 -14 -14 -14 -14 -14 -14 -14 -13 -13 -13 -11
-21 -21 -21 -20 -20 -20 -20 -20 -20 -20 -19 -19 -19 -18 -18 -18 -18 -18 -17 -17 -17 -17 -17 -17 -17 -19 -18 -17 -19 -17 -15 -15 -15 -14 -14 -14 -14 -14 -14 -14 -14 -14 -14 -13 -13 -13 -12
-21 -22 -21 -21 -21 -21 -20 -21 -21 -21 -21 -20 -20 -19 -19 -19 -19 -18 -18 -17 -17 -16 -17 -17 -17 -18 -18 -18 -19 -17 -17 -17 -16 -16 -16 -15 -15 -15 -14 -14 -14 -14 -14 -14 -14 -13 -13
-22 -22 -22 -22 -22 -22 -22 -22 -22 -22 -22 -21 -21 -20 -20 -20 -20 -19 -18 -17 -17 -17 -17 -17 -17 -17 -18 -18 -18 -17 -17 -16 -16 -16 -15 -15 -15 -15 -15 -15 -15 -15 -14 -15 -14 -14 -14
-23 -23 -23 -23 -23 -23 -23 -23 -23 -22 -22 -22 -22 -21 -21 -21 -21 -20 -19 -17 -17 -17 -17 -17 -18 -18 -18 -18 -18 -17 -17 -16 -16 -16 -15 -15 -16 -16 -17 -16 -15 -15 -15 -15 -14 -14 -14
-24 -24 -23 -23 -23 -23 -23 -23 -23 -23 -23 -23 -22 -22 -22 -22 -22 -21 -19 -18 -18 -18 -18 -18 -19 -19 -19 -19 -18 -18 -17 -17 -16 -16 -15 -16 -16 -16 -16 -16 -17 -16 -15 -15 -14 -14 -13
-24 -24 -24 -24 -24 -24 -23 -23 -23 -24 -24 -24 -24 -23 -23 -23 -23 -21 -20 -19 -19 -20 -19 -19 -19 -20 -19 -20 -20 -19 -18 -17 -16 -16 -16 -15 -15 -15 -16 -16 -17 -16 -15 -15 -15 -14 -14
-24 -24 -24 -24 -24 -24 -24 -24 -24 -25 -25 -26 -25 -25 -25 -25 -24 -22 -22 -21 -21 -21 -20 -20 -19 -20 -21 -21 -20 -19 -19 -18 -17 -17 -16 -16 -16 -15 -16 -16 -16 -16 -15 -15 -15 -14 -13
-24 -24 -24 -24 -24 -24 -25 -25 -26 -26 -27 -27 -26 -26 -26 -26 -25 -25 -23 -23 -22 -23 -21 -21 -21 -21 -21 -21 -21 -20 -19 -18 -17 -17 -16 -16 -16 -16 -16 -16 -16 -16 -16 -15 -14 -14 -13
-24 -24 -25 -25 -25 -26 -26 -26 -26 -27 -27 -28 -27 -26 -26 -26 -26 -25 -25 -24 -24 -23 -23 -23 -22 -22 -22 -21 -21 -21 -20 -19 -18 -17 -17 -17 -16 -16 -16 -16 -16 -16 -16 -16 -15 -15 -14
-25 -25 -25 -26 -26 -26 -27 -27 -27 -27 -27 -28 -27 -26 -26 -26 -26 -26 -26 -25 -25 -25 -24 -24 -24 -24 -23 -22 -22 -21 -21 -19 -19 -17 -18 -17 -17 -17 -17 -17 -17 -16 -16 -16 -16 -16 -14
-25 -25 -25 -25 -25 -26 -26 -26 -27 -28 -27 -27 -27 -27 -27 -26 -26 -26 -25 -25 -25 -25 -25 -25 -24 -24 -24 -24 -22 -20 -20 -20 -19 -20 -19 -18 -18 -19 -18 -19 -18 -16 -17 -17 -17 -17 -16
-26 -25 -25 -25 -25 -25 -25 -26 -27 -27 -27 -27 -27 -27 -27 -26 -26 -26 -26 -25 -25 -24 -24 -24 -24 -24 -24 -24 -23 -22 -21 -21 -20 -21 -21 -20 -21 -20 -19 -20 -19 -17 -19 -18 -18 -17 -17
-26 -27 -26 -25 -24 -25 -25 -26 -26 -27 -27 -27 -27 -27 -27 -26 -26 -26 -25 -25 -25 -24 -24 -24 -24 -24 -24 -23 -23 -22 -22 -21 -21 -21 -21 -21 -21 -21 -21 -21 -19 -18 -18 -19 -19 -18 -18
-27 -27 -26 -26 -25 -24 -25 -25 -25 -26 -27 -27 -27 -27 -27 -26 -25 -26 -25 -25 -24 -24 -24 -24 -24 -24 -24 -23 -22 -22 -22 -21 -21 -21 -22 -21 -21 -21 -20 -20 -19 -18 -19 -20 -19 -19 -19
-26 -26 -26 -26 -26 -24 -24 -25 -25 -25 -26 -27 -26 -27 -26 -26 -25 -25 -25 -24 -24 -24 -24 -24 -24 -24 -23 -23 -22 -22 -22 -22 -22 -22 -22 -21 -21 -21 -20 -20 -19 -19 -21 -21 -20 -19 -19
-26 -26 -26 -26 -26 -25 -24 -24 -24 -25 -26 -25 -25 -26 -26 -25 -25 -25 -24 -24 -24 -24 -23 -23 -24 -24 -23 -22 -22 -22 -22 -22 -22 -22 -22 -21 -21 -21 -20 -20 -20 -20 -21 -21 -20 -19 -19
-26 -26 -26 -26 -26 -26 -24 -24 -24 -24 -25 -25 -25 -25 -25 -26 -25 -25 -24 -24 -24 -24 -24 -23 -24 -24 -23 -22 -22 -22 -22 -22 -22 -22 -21 -21 -21 -21 -20 -20 -20 -20 -21 -20 -20 -20 -20
Height
5721 5721 5721 5719 5718 5718 5718 5718 5717 5716 5716 5716 5716 5715 5715 5715 5716 5718 5719 5722 5724 5727 5730 5733 5738 5742 5747 5753 5755 5754 5757 5758 5762 5764 5766 5768 5771 5771 5772 5773 5773 5774 5773 5773 5771 5769 5769
5708 5707 5706 5706 5706 5705 5704 5704 5703 5704 5702 5703 5702 5702 5702 5702 5704 5702 5705 5706 5709 5712 5715 5719 5725 5730 5736 5743 5742 5744 5749 5751 5754 5756 5759 5762 5763 5765 5767 5767 5768 5769 5769 5768 5766 5766 5765
5695 5694 5693 5692 5694 5693 5693 5691 5691 5691 5690 5691 5691 5690 5690 5690 5690 5690 5691 5691 5694 5697 5702 5706 5711 5715 5723 5732 5730 5734 5740 5742 5746 5748 5751 5754 5756 5760 5762 5761 5763 5764 5765 5763 5761 5762 5762
5682 5681 5680 5680 5680 5682 5681 5680 5681 5680 5680 5680 5680 5679 5678 5677 5678 5678 5677 5679 5679 5684 5688 5692 5696 5700 5709 5714 5719 5724 5727 5732 5736 5741 5743 5744 5749 5754 5756 5756 5758 5758 5760 5760 5756 5756 5757
5670 5667 5667 5668 5670 5671 5670 5670 5670 5670 5670 5671 5670 5670 5670 5669 5667 5667 5666 5664 5668 5670 5675 5679 5682 5685 5693 5699 5705 5711 5717 5723 5727 5732 5734 5736 5741 5747 5750 5751 5752 5753 5754 5754 5750 5750 5750
5656 5656 5656 5658 5659 5659 5659 5660 5659 5660 5662 5661 5662 5663 5663 5663 5659 5658 5654 5652 5653 5659 5662 5665 5668 5674 5679 5685 5694 5701 5706 5711 5717 5721 5723 5727 5733 5738 5743 5746 5749 5747 5746 5747 5748 5745 5743
5642 5642 5645 5646 5648 5648 5650 5651 5651 5652 5653 5655 5653 5655 5655 5655 5653 5652 5650 5647 5647 5650 5651 5654 5657 5661 5665 5671 5681 5689 5694 5700 5706 5710 5714 5720 5723 5730 5741 5739 5738 5739 5740 5743 5744 5739 5738
5628 5630 5632 5633 5636 5638 5639 5640 5642 5644 5643 5645 5646 5647 5647 5647 5646 5644 5643 5642 5639 5638 5643 5642 5645 5650 5653 5660 5670 5677 5684 5690 5695 5702 5706 5708 5710 5728 5729 5729 5731 5732 5735 5739 5739 5734 5733
5616 5618 5619 5621 5624 5626 5627 5630 5631 5633 5634 5634 5637 5639 5639 5639 5638 5638 5636 5635 5633 5631 5630 5640 5634 5639 5643 5650 5661 5668 5672 5678 5685 5691 5695 5699 5709 5715 5719 5721 5723 5727 5729 5733 5732 5727 5727
5603 5605 5607 5609 5611 5612 5613 5616 5620 5621 5623 5625 5625 5629 5630 5630 5632 5630 5629 5629 5628 5627 5623 5632 5629 5630 5636 5641 5649 5655 5658 5667 5673 5682 5686 5687 5696 5704 5709 5713 5716 5718 5725 5724 5724 5720 5722
5590 5592 5593 5596 5598 5599 5601 5604 5606 5608 5610 5612 5614 5618 5618 5621 5622 5622 5624 5623 5623 5622 5617 5626 5624 5625 5627 5631 5637 5639 5647 5654 5663 5671 5675 5682 5691 5695 5701 5708 5709 5715 5714 5713 5714 5714 5714
5574 5577 5579 5581 5584 5586 5589 5592 5592 5593 5596 5598 5601 5604 5606 5609 5612 5614 5615 5616 5617 5617 5616 5619 5620 5621 5623 5623 5627 5632 5637 5644 5654 5658 5663 5669 5677 5683 5690 5696 5699 5702 5706 5707 5707 5708 5705
5559 5562 5564 5568 5570 5573 5576 5578 5578 5579 5580 5583 5586 5589 5593 5597 5599 5604 5606 5608 5610 5607 5614 5613 5617 5619 5619 5620 5622 5626 5630 5635 5643 5649 5654 5662 5667 5675 5680 5685 5689 5694 5699 5701 5701 5700 5703
5543 5545 5549 5552 5555 5558 5561 5563 5564 5565 5566 5568 5570 5574 5579 5584 5586 5592 5595 5598 5599 5601 5606 5607 5610 5614 5616 5620 5619 5623 5626 5629 5634 5641 5648 5652 5659 5663 5672 5676 5683 5687 5690 5692 5693 5695 5697
5525 5528 5532 5536 5540 5543 5546 5548 5550 5550 5551 5552 5555 5561 5566 5570 5572 5578 5582 5585 5590 5594 5598 5599 5602 5607 5613 5616 5618 5621 5622 5627 5630 5636 5642 5645 5650 5656 5663 5667 5672 5676 5678 5689 5687 5686 5686
5507 5512 5516 5520 5524 5528 5530 5532 5533 5534 5535 5536 5541 5546 5553 5555 5558 5563 5567 5574 5579 5583 5588 5591 5593 5599 5603 5608 5613 5616 5620 5623 5626 5631 5635 5640 5645 5649 5653 5657 5661 5664 5673 5675 5675 5677 5679
5489 5495 5500 5504 5508 5511 5514 5515 5517 5518 5518 5518 5525 5529 5540 5541 5542 5548 5552 5561 5568 5572 5575 5582 5585 5589 5594 5599 5604 5608 5614 5619 5622 5625 5629 5634 5639 5643 5647 5651 5656 5658 5662 5668 5672 5672 5672
5474 5479 5483 5487 5491 5494 5496 5498 5500 5500 5500 5502 5507 5512 5526 5526 5528 5533 5538 5547 5556 5561 5563 5568 5575 5578 5583 5589 5595 5600 5604 5609 5613 5619 5623 5627 5631 5637 5642 5646 5648 5652 5655 5658 5659 5664 5666
5459 5463 5467 5471 5475 5476 5478 5480 5482 5483 5483 5486 5490 5499 5506 5511 5510 5519 5524 5535 5542 5549 5552 5557 5563 5569 5572 5579 5586 5590 5595 5599 5604 5610 5615 5620 5623 5628 5634 5639 5642 5645 5648 5651 5654 5656 5659
5444 5448 5451 5454 5456 5457 5459 5461 5464 5466 5467 5469 5476 5483 5492 5494 5502 5509 5513 5523 5531 5538 5542 5546 5553 5558 5563 5567 5573 5579 5584 5589 5593 5598 5604 5610 5614 5618 5625 5631 5635 5638 5641 5644 5647 5649 5651
5430 5433 5435 5437 5439 5441 5442 5445 5448 5452 5454 5455 5463 5472 5481 5484 5493 5501 5504 5513 5521 5529 5532 5537 5542 5547 5552 5557 5562 5568 5575 5579 5585 5590 5594 5600 5605 5608 5613 5619 5624 5628 5631 5636 5638 5643 5644
5416 5418 5420 5423 5426 5428 5430 5431 5433 5436 5440 5441 5451 5463 5469 5476 5483 5489 5494 5502 5514 5521 5526 5531 5535 5539 5542 5546 5552 5559 5564 5569 5575 5580 5586 5590 5595 5599 5603 5607 5614 5619 5623 5626 5630 5633 5635
5403 5405 5407 5410 5412 5415 5418 5421 5423 5425 5426 5432 5444 5453 5458 5466 5473 5478 5486 5498 5508 5515 5521 5525 5529 5533 5536 5539 5542 5549 5555 5561 5567 5572 5576 5583 5584 5590 5594 5598 5601 5609 5616 5618 5621 5623 5626
5392 5393 5395 5397 5400 5403 5406 5409 5413 5415 5418 5424 5435 5442 5446 5455 5463 5473 5481 5491 5501 5509 5514 5519 5523 5527 5530 5533 5537 5542 5546 5552 5557 5562 5566 5571 5576 5580 5585 5588 5592 5600 5607 5607 5610 5614 5616
5385 5385 5384 5385 5389 5393 5396 5400 5403 5406 5410 5414 5423 5431 5439 5448 5456 5465 5475 5485 5494 5501 5508 5513 5516 5521 5524 5528 5532 5536 5540 5545 5550 5555 5559 5563 5566 5572 5573 5577 5585 5590 5596 5599 5600 5607 5607
5375 5374 5375 5376 5377 5382 5387 5391 5395 5398 5402 5407 5414 5423 5431 5440 5450 5461 5469 5479 5488 5496 5502 5509 5511 5515 5519 5523 5526 5529 5533 5538 5543 5547 5551 5556 5561 5565 5566 5567 5574 5583 5584 5584 5588 5595 5598
5364 5363 5364 5365 5367 5371 5378 5384 5388 5392 5395 5399 5406 5417 5426 5435 5448 5458 5467 5475 5483 5490 5497 5501 5505 5510 5513 5518 5521 5525 5529 5534 5538 5543 5548 5551 5555 5560 5561 5563 5568 5571 5568 5572 5579 5585 5582
5355 5353 5353 5354 5357 5361 5369 5377 5383 5387 5391 5396 5405 5414 5424 5434 5446 5453 5461 5470 5477 5485 5491 5496 5499 5502 5508 5512 5516 5520 5525 5529 5533 5537 5542 5546 5549 5553 5556 5559 5562 5561 5561 5565 5568 5572 5574
5341 5339 5339 5341 5345 5350 5359 5369 5377 5384 5389 5396 5403 5413 5423 5432 5441 5449 5456 5465 5472 5479 5483 5488 5493 5496 5502 5506 5510 5515 5520 5525 5528 5532 5536 5541 5545 5549 5553 5554 5555 5555 5556 5557 5562 5566 5566
Wind_Speed
48 50 50 50 51 53 55 57 59 61 62 62 63 59 58 58 60 62 58 58 57 57 54 53 51 49 46 42 39 38 37 36 36 33 32 29 28 27 26 21 17 17 19 21 23 23 18
52 51 51 52 54 55 57 59 59 61 58 58 58 57 55 54 56 56 58 59 58 58 56 54 51 51 50 44 42 41 38 36 34 34 32 31 31 29 25 20 18 19 17 20 23 22 18
51 51 52 52 55 55 55 54 53 51 51 51 50 50 50 52 54 53 55 56 58 58 57 54 50 52 53 46 46 41 41 39 37 34 33 33 33 28 22 22 18 22 18 21 24 23 18
52 51 51 51 51 52 49 47 46 45 45 45 45 46 46 48 52 52 51 54 53 52 53 52 53 52 54 52 49 43 44 42 40 37 35 36 34 31 26 24 19 23 21 22 28 24 19
54 50 50 50 51 50 45 42 40 40 38 37 36 38 36 39 43 47 46 47 50 48 51 51 52 53 51 55 49 49 45 41 41 40 40 39 36 32 30 26 22 21 19 24 30 25 23
52 51 49 49 46 44 41 39 36 34 33 32 31 30 31 32 32 34 35 38 43 48 50 49 48 47 45 55 47 50 47 45 44 45 47 44 39 35 31 26 19 22 23 29 27 28 25
52 49 47 44 43 40 39 38 36 35 34 35 33 35 36 36 33 33 29 24 35 40 40 47 47 46 51 48 53 54 48 50 50 51 50 43 44 37 25 29 30 29 30 28 26 29 28
47 45 45 44 43 43 43 39 41 40 37 38 36 38 37 36 35 36 33 27 23 33 36 41 46 45 49 48 49 53 49 48 52 51 47 48 48 31 31 35 33 31 30 26 24 29 29
50 49 48 47 47 46 45 44 46 44 43 41 40 40 40 38 35 36 35 34 29 26 33 25 41 48 51 51 49 49 49 44 49 51 48 45 42 36 36 35 35 33 31 27 26 32 31
50 51 50 49 49 47 45 45 48 49 49 48 45 46 40 38 37 34 34 35 33 30 30 20 29 34 41 47 45 45 46 47 46 49 49 48 44 40 40 37 37 37 29 31 30 34 31
52 51 51 51 50 49 50 51 52 52 51 51 50 49 46 40 41 41 38 35 35 31 38 22 23 25 30 38 40 41 46 46 48 50 51 47 40 38 39 35 36 32 33 36 36 37 36
56 55 55 54 53 53 53 54 54 54 54 53 54 53 50 46 44 43 40 38 34 35 34 27 15 17 23 27 32 31 37 45 42 48 53 52 46 42 40 38 38 37 37 37 38 39 38
60 58 57 56 56 57 57 56 54 54 54 54 56 55 52 50 48 45 43 40 38 38 29 29 21 20 14 20 18 24 29 37 35 39 39 47 50 45 43 39 40 40 38 37 39 40 33
62 59 59 58 58 58 59 58 55 54 53 55 56 57 53 51 51 48 46 45 41 41 33 32 29 27 24 17 17 24 22 27 29 29 29 33 40 43 36 34 35 37 38 40 40 39 35
64 62 62 61 59 60 60 59 57 55 54 55 56 57 55 49 50 51 50 49 44 40 35 34 33 32 29 23 27 21 22 28 27 31 32 31 31 32 38 34 35 38 43 34 38 41 40
64 62 60 60 60 60 60 59 58 57 57 57 57 57 56 53 51 52 54 51 47 43 39 36 35 33 32 32 31 28 28 26 25 27 30 33 32 33 30 31 33 37 35 38 42 42 41
61 61 59 59 60 60 60 59 58 59 59 59 59 60 55 53 53 54 57 53 49 45 44 39 33 33 33 31 29 31 32 33 32 31 32 33 33 36 35 36 32 32 34 35 38 41 42
56 58 58 58 59 60 61 60 59 59 61 62 60 60 55 50 54 57 57 53 49 44 45 43 36 36 36 33 32 34 37 36 37 36 34 35 35 38 38 37 38 39 38 38 41 41 43
51 53 55 57 57 58 59 60 60 59 60 59 57 53 51 46 55 55 54 51 45 44 43 42 40 36 37 37 37 38 39 40 40 40 39 38 40 38 35 34 35 38 39 40 41 42 41
48 50 52 55 57 57 55 52 48 47 49 51 50 50 46 47 48 49 50 45 42 38 41 41 39 37 37 39 40 41 42 43 44 44 43 45 45 44 43 40 38 38 40 43 43 43 43
48 51 51 49 49 45 45 48 49 48 48 50 49 47 44 45 43 42 45 39 35 32 34 35 35 34 34 38 39 43 44 45 45 46 47 47 46 47 48 46 45 46 45 44 46 46 45
40 38 36 35 36 36 34 33 36 46 51 53 49 44 45 45 37 39 38 32 25 23 25 24 27 25 31 35 38 41 44 47 47 49 48 49 47 47 47 47 44 45 44 46 47 46 46
38 39 40 39 38 38 38 38 36 35 45 51 45 41 42 42 41 39 35 28 23 22 20 22 21 21 23 26 35 40 43 44 46 47 48 49 50 46 47 44 46 46 40 43 45 47 51
28 33 36 37 36 36 35 37 39 41 37 43 45 41 43 43 45 39 33 28 23 20 20 23 22 22 23 25 28 30 35 38 42 42 46 47 45 45 45 46 48 46 38 40 41 44 46
23 23 26 33 36 35 33 33 35 39 41 36 42 43 43 41 43 43 32 26 24 22 20 23 24 24 25 26 22 24 29 31 33 35 36 39 43 42 47 47 47 47 40 39 32 34 37
30 29 28 26 34 35 33 31 32 32 38 40 36 40 45 45 39 37 34 30 26 21 21 21 26 25 25 24 23 25 28 29 33 34 36 37 35 32 33 39 38 35 45 44 43 41 39
26 26 26 30 29 36 33 30 28 28 29 35 34 40 48 47 38 35 29 26 26 24 20 21 26 25 26 26 27 26 26 28 29 28 30 31 30 26 24 19 16 21 34 44 48 49 46
26 27 28 30 33 35 36 32 30 27 26 29 31 38 46 41 36 30 25 25 24 23 21 21 23 28 28 28 30 28 25 23 25 23 24 23 22 19 15 11 10 13 18 20 23 29 47
34 35 32 29 33 32 40 36 34 31 30 27 33 37 43 42 35 29 27 24 23 24 25 23 22 28 31 31 31 27 26 24 25 26 26 23 20 18 17 14 16 19 20 21 20 19 21
Wind_Direction
277 278 278 278 276 273 273 273 272 272 272 273 274 275 275 274 273 271 268 266 262 258 256 255 257 253 251 249 249 246 244 247 249 244 249 254 255 253 256 262 266 279 257 269 278 288 295
277 277 275 273 271 270 271 273 273 275 277 277 276 275 274 274 274 267 263 261 257 256 254 252 252 254 247 244 242 243 240 243 242 239 246 252 251 248 253 258 261 274 267 262 275 286 295
273 272 270 271 272 274 276 276 277 278 278 278 277 277 277 277 272 270 264 258 257 255 254 255 252 253 252 239 239 237 240 236 239 240 245 250 249 246 246 253 255 266 267 268 278 284 295
271 270 272 273 274 275 276 277 278 280 279 279 280 280 280 276 271 271 267 262 258 259 256 255 254 252 254 237 236 232 234 236 238 243 244 248 250 248 245 250 250 257 264 273 274 283 290
270 272 272 272 272 272 273 275 277 279 280 280 279 278 277 278 277 271 270 263 260 259 259 253 252 255 245 234 233 232 232 234 239 244 246 246 249 246 244 248 251 259 266 263 268 282 289
270 271 269 269 268 270 272 274 273 272 271 271 273 277 279 283 282 283 281 275 263 259 255 250 252 249 245 237 231 232 231 233 238 244 246 245 247 243 241 250 256 258 253 258 268 280 286
265 266 265 265 265 266 268 268 265 263 264 269 272 275 277 278 281 287 295 296 277 261 258 252 253 244 246 240 234 230 230 230 230 239 245 248 247 244 247 249 247 245 252 262 272 277 281
261 259 261 263 265 265 264 265 263 262 263 267 269 271 275 277 279 280 286 291 293 272 257 259 251 242 242 238 229 230 236 240 228 236 241 244 244 242 237 243 247 245 249 259 264 271 270
259 259 260 262 262 263 262 264 263 264 266 265 268 267 269 277 279 280 281 283 289 298 275 246 251 241 244 243 240 240 240 233 230 231 239 244 247 238 235 241 246 248 247 253 258 263 269
260 259 260 261 261 263 263 263 263 265 266 267 267 267 267 267 274 277 279 278 283 292 286 283 259 254 249 246 239 232 238 230 232 230 234 240 238 235 235 238 245 247 246 248 255 258 263
258 258 259 259 261 262 263 263 264 265 266 265 265 265 264 263 267 272 277 278 273 283 281 288 257 253 253 238 234 233 234 235 234 232 231 238 241 240 240 242 244 246 236 241 247 257 263
258 259 260 261 262 263 264 265 266 267 267 267 267 266 265 263 263 261 267 270 272 271 273 270 272 266 256 239 240 236 233 234 234 233 233 232 231 234 233 230 234 237 239 241 248 256 261
258 259 260 262 263 264 265 266 267 268 269 269 269 267 266 265 262 260 261 262 264 262 270 267 261 245 261 238 230 237 231 228 230 230 233 235 233 232 235 233 232 237 241 243 249 255 266
258 258 260 261 263 264 265 267 268 269 271 271 270 270 269 264 263 259 257 257 255 261 259 262 256 252 240 237 255 223 225 233 237 236 235 233 234 231 232 237 237 237 237 241 250 257 263
256 256 258 259 261 263 265 266 267 268 269 269 267 266 267 267 261 258 253 252 254 255 254 257 253 244 244 239 235 236 235 221 228 232 233 236 232 229 226 222 228 234 239 243 247 252 255
255 256 258 260 262 263 264 266 267 268 268 268 266 263 263 266 261 257 252 249 250 250 252 252 253 247 240 239 239 234 233 234 236 237 231 234 235 235 232 238 228 233 233 235 241 247 252
253 255 257 259 261 262 264 267 268 269 268 267 266 264 263 261 257 254 250 248 246 247 248 247 247 248 243 237 235 238 234 229 232 229 231 232 234 235 232 228 238 243 240 241 246 250 253
256 255 257 260 263 265 266 267 267 266 265 265 264 263 259 255 250 251 249 245 242 243 244 247 242 240 239 236 229 229 233 233 233 232 233 232 236 235 238 234 237 238 237 237 240 246 253
257 258 259 263 264 264 265 265 264 262 261 259 258 254 252 246 243 243 244 242 241 240 241 243 243 236 235 231 229 230 230 234 237 237 235 236 237 235 234 236 238 242 243 240 244 251 255
256 258 261 263 264 265 264 261 258 254 251 249 247 245 243 243 236 236 238 238 239 237 238 239 239 239 232 231 230 232 233 234 236 239 238 236 236 239 239 237 238 240 239 240 244 251 257
261 262 264 264 263 262 260 256 253 248 246 244 243 241 238 240 237 232 233 231 230 229 233 235 235 237 235 232 231 233 234 238 237 240 241 241 240 241 239 239 238 238 240 243 248 251 253
263 259 256 255 256 259 260 258 252 243 240 241 241 239 234 236 227 223 222 220 209 211 223 231 237 233 236 238 236 232 234 240 241 242 241 246 245 244 245 246 243 239 241 244 246 248 250
265 262 259 258 256 255 252 250 248 246 240 239 239 234 230 229 221 221 216 210 194 208 212 220 225 229 235 238 239 240 241 238 243 244 248 243 246 245 246 248 250 245 245 245 246 249 251
277 267 259 253 249 247 247 244 240 242 248 240 234 230 227 220 219 215 214 206 208 207 218 226 223 220 227 238 243 242 242 241 240 237 240 245 247 249 249 252 251 254 252 256 252 248 251
285 283 272 258 246 242 240 239 239 236 241 242 230 227 220 216 215 209 204 206 213 219 221 221 226 224 232 234 242 243 239 240 238 237 239 240 243 248 251 250 250 252 253 248 252 250 256
288 276 265 267 252 236 234 233 233 233 233 236 229 218 209 211 210 212 214 216 229 224 219 217 227 227 228 232 233 233 228 228 229 230 231 233 239 246 255 257 260 254 245 249 254 254 251
278 279 267 256 256 234 225 223 223 226 225 224 220 210 205 208 204 214 220 221 222 221 216 217 226 223 225 228 225 229 233 234 235 235 232 235 238 246 253 260 259 248 254 257 255 250 252
279 273 270 260 249 235 216 213 211 216 216 214 208 204 201 205 211 221 222 218 219 218 221 221 224 221 220 220 225 226 228 227 228 230 230 228 231 233 234 235 226 238 257 254 260 256 257
287 269 259 257 237 232 209 204 203 205 207 199 196 195 202 212 220 220 223 222 225 223 229 226 223 219 219 220 223 222 229 227 228 229 231 230 235 235 233 233 239 252 266 269 270 275 275